TimeEST,TemperatureF,Dew PointF,Humidity,Sea Level PressureIn,VisibilityMPH,Wind Direction,Wind SpeedMPH,Gust SpeedMPH,PrecipitationIn,Events,Conditions,WindDirDegrees,DateUTC
12:52 AM,32.0,15.1,50,30.13,10.0,West,6.9,-,N/A,,Clear,260,2013-11-14 05:52:00
1:52 AM,32.0,15.1,50,30.12,10.0,WSW,6.9,-,N/A,,Clear,240,2013-11-14 06:52:00
2:52 AM,32.0,16.0,52,30.11,10.0,Variable,4.6,-,N/A,,Clear,0,2013-11-14 07:52:00
3:52 AM,34.0,15.1,46,30.09,10.0,SW,10.4,-,N/A,,Clear,230,2013-11-14 08:52:00
4:52 AM,34.0,15.1,46,30.08,10.0,SW,4.6,-,N/A,,Clear,220,2013-11-14 09:52:00
5:52 AM,36.0,14.0,41,30.08,10.0,SW,5.8,-,N/A,,Clear,230,2013-11-14 10:52:00
6:52 AM,34.0,15.1,46,30.10,10.0,West,4.6,-,N/A,,Clear,260,2013-11-14 11:52:00
7:52 AM,36.0,17.1,46,30.11,10.0,North,-9999.0,-,N/A,,Clear,0,2013-11-14 12:52:00
8:52 AM,39.0,17.1,41,30.10,10.0,Variable,5.8,-,N/A,,Clear,0,2013-11-14 13:52:00
9:52 AM,44.1,14.0,30,30.10,10.0,West,13.8,20.7,N/A,,Clear,270,2013-11-14 14:52:00
10:52 AM,46.0,15.1,29,30.09,10.0,West,10.4,23.0,N/A,,Clear,280,2013-11-14 15:52:00
11:52 AM,48.9,16.0,27,30.07,10.0,WNW,13.8,20.7,N/A,,Clear,290,2013-11-14 16:52:00
12:52 PM,50.0,19.0,29,30.06,10.0,West,12.7,-,N/A,,Clear,270,2013-11-14 17:52:00
1:52 PM,51.1,21.0,31,30.05,10.0,West,13.8,23.0,N/A,,Clear,280,2013-11-14 18:52:00
2:52 PM,52.0,21.0,30,30.06,10.0,WNW,8.1,18.4,N/A,,Clear,290,2013-11-14 19:52:00
3:52 PM,48.0,21.0,34,30.08,10.0,WSW,4.6,-,N/A,,Clear,240,2013-11-14 20:52:00
4:52 PM,46.9,19.9,34,30.08,10.0,Variable,4.6,-,N/A,,Clear,0,2013-11-14 21:52:00
5:52 PM,42.1,21.0,43,30.10,10.0,Variable,3.5,-,N/A,,Clear,0,2013-11-14 22:52:00
6:52 PM,37.0,21.9,54,30.11,10.0,Calm,Calm,-,N/A,,Clear,0,2013-11-14 23:52:00
7:52 PM,34.0,23.0,64,30.11,10.0,Calm,Calm,-,N/A,,Clear,0,2013-11-15 00:52:00
8:52 PM,30.0,21.9,72,30.12,10.0,NNW,3.5,-,N/A,,Clear,330,2013-11-15 01:52:00
9:52 PM,28.0,21.0,75,30.12,10.0,Calm,Calm,-,N/A,,Clear,0,2013-11-15 02:52:00
10:52 PM,28.0,19.9,72,30.12,10.0,Calm,Calm,-,N/A,,Clear,0,2013-11-15 03:52:00
11:52 PM,32.0,18.0,56,30.12,10.0,Calm,Calm,-,N/A,,Clear,0,2013-11-15 04:52:00